Location: Boiro
(42.6475°N, 8.8834°W)
Time: 07:57:40
(UTC+01:00)

SR - Pass Details

Date: 06 December 2021
Orbit: 583 x 872 km, 66.7° (Epoch: 16 January)

Event Time Altitude Azimuth Distance (km) Brightness Sun altitude
Rises 23:45:39 0° 195° (SSW) 3,010 - -61.0°
Reaches altitude 10° 23:48:05 10° 189° (S) 2,056 - -61.3°
Maximum altitude 23:52:30 48° 116° (ESE) 816 - -62.0°
Drops below altitude 10° 23:56:42 10° 42° (NE) 1,946 - -62.6°
Sets 23:58:56 0° 37° (NE) 2,832 - -62.9°
